Location: Boiro
(42.6475°N, 8.8834°W)
Time: 23:53:10
(UTC+01:00)

Tiros 1 - Pass Details

Date: 15 December 2021
Orbit: 629 x 664 km, 48.4° (Epoch: 18 January)

Event Time Altitude Azimuth Distance (km) Brightness Sun altitude
Rises 22:47:17 0° 287° (WNW) 2,935 - -51.1°
Reaches altitude 10° 22:50:13 10° 268° (W) 2,029 - -51.6°
Maximum altitude 22:53:21 18° 226° (SW) 1,571 - -52.2°
Drops below altitude 10° 22:56:30 10° 183° (S) 2,035 - -52.7°
Sets 22:59:27 0° 165° (SSE) 2,949 - -53.2°
